Lapse_Rate
3.2 2.8 2.3 1.8 1.5 1.5 1.3 1.1 0.8 0.7 0.9 1.0 0.8 0.5 0.6 0.7 -0.2 0.4 -0.3 -1.0 -0.8 0.6 1.9 5.7 4.7 3.8 5.2 5.9 5.4 5.9 6.5 6.5 6.5 6.5 6.5 6.5 6.5 5.7 6.6 5.5 5.0 3.9 5.0 5.8 6.7
2.0 1.6 1.5 1.6 1.4 1.3 1.3 1.3 1.0 1.0 1.0 1.0 0.9 0.7 0.5 0.7 -0.6 -1.1 -0.2 2.1 1.6 2.6 3.1 3.7 5.2 5.0 4.6 5.2 4.8 6.2 6.5 6.5 6.5 6.5 6.5 6.4 6.2 5.7 6.1 6.3 6.3 5.4 5.1 6.6 7.0
1.6 1.4 1.2 1.5 1.6 1.5 1.4 1.1 1.0 1.0 1.1 1.1 0.9 0.7 0.7 0.8 1.6 4.2 3.6 3.0 3.4 3.4 5.1 5.9 5.4 6.1 4.8 4.8 4.7 5.4 6.5 6.5 6.2 6.4 6.3 6.3 6.1 6.3 6.2 6.5 6.5 6.6 7.2 7.0 6.8
1.5 1.2 0.9 0.8 0.8 0.8 1.0 1.2 1.3 1.0 1.3 1.1 1.2 1.1 1.2 1.5 6.5 5.9 2.5 2.9 2.6 3.0 6.1 6.1 6.2 5.5 6.6 6.5 5.1 6.5 6.1 6.1 6.1 6.2 6.1 6.5 4.4 6.3 5.3 6.0 6.7 6.7 6.8 7.1 7.0
1.4 1.2 1.0 1.0 1.1 1.1 0.9 0.7 0.6 0.8 1.8 2.1 1.9 2.0 1.9 4.8 2.4 3.8 4.1 3.1 3.4 5.5 5.8 6.4 5.8 5.8 6.5 6.3 5.7 6.5 6.5 6.0 6.1 6.2 6.1 5.8 6.3 6.1 5.7 5.1 6.2 7.1 7.0 7.0 7.2
1.6 1.4 1.2 1.1 1.1 1.3 1.1 1.3 1.5 1.0 2.2 2.1 2.4 3.1 3.5 6.4 5.8 6.9 6.3 5.7 5.7 4.6 5.4 6.3 6.3 5.8 5.8 6.3 6.5 5.7 6.0 6.1 5.5 5.8 6.0 6.4 6.4 5.7 5.0 5.1 6.8 7.1 6.8 6.9 7.0
1.4 1.3 1.2 1.1 1.1 1.4 1.4 2.0 1.9 1.8 2.1 2.9 3.8 4.8 6.7 3.5 5.4 5.1 6.1 6.9 6.7 7.3 6.0 6.3 7.1 6.4 5.7 6.5 5.6 5.8 6.5 6.5 6.5 6.1 6.3 5.3 6.5 6.5 4.2 5.1 6.6 6.8 7.0 6.9 6.7
1.4 1.5 1.2 0.9 1.1 1.7 1.6 1.5 1.4 2.0 2.2 3.3 4.4 5.3 5.5 6.6 6.3 7.8 7.5 7.6 8.1 7.9 7.3 7.2 6.8 6.7 6.3 5.8 6.3 6.5 6.5 6.5 6.5 6.5 6.3 5.4 6.5 6.5 3.6 4.2 5.6 6.4 6.5 6.6 5.7
1.2 1.3 1.2 1.3 2.0 2.8 2.4 1.6 2.3 3.3 3.0 3.6 3.5 4.6 6.2 8.4 8.2 8.9 7.5 7.6 7.3 7.6 7.5 8.8 7.5 6.3 6.2 6.5 6.5 6.5 6.5 6.5 6.5 6.5 6.5 6.5 6.5 6.5 3.5 4.4 6.1 6.4 6.5 6.6 6.0
1.2 1.1 1.5 1.5 2.4 3.1 3.1 2.6 4.6 4.6 6.3 5.6 6.3 5.9 6.9 7.4 8.0 8.4 8.3 8.3 7.7 6.9 7.2 6.5 6.3 6.5 6.5 6.5 6.5 6.5 6.5 6.5 6.5 6.5 6.5 6.5 6.5 6.5 4.6 4.3 4.9 6.3 6.5 6.8 6.5
1.4 1.1 1.6 1.8 2.8 3.2 2.9 5.3 5.7 5.3 4.2 6.4 6.5 7.1 7.3 7.7 8.3 7.6 8.2 7.3 7.2 7.0 6.5 6.2 6.5 6.5 6.5 6.5 6.5 6.5 6.5 6.5 6.5 6.5 6.5 6.5 6.5 6.5 6.3 5.1 5.3 6.0 6.4 6.5 6.5
1.4 1.7 1.3 1.8 2.7 4.4 5.2 7.2 7.4 8.5 6.2 4.0 7.2 7.3 8.1 8.0 7.1 7.7 8.7 7.1 6.8 6.5 6.5 6.5 6.5 6.5 6.5 6.5 6.5 6.5 6.5 6.5 6.5 6.5 6.5 6.5 6.5 6.5 6.5 6.4 4.7 5.1 6.3 6.4 6.4
1.7 1.8 1.6 1.5 2.7 5.1 6.3 7.7 8.4 8.0 6.3 6.7 7.8 7.4 7.6 7.8 6.9 7.2 7.8 7.2 6.5 6.5 6.5 6.5 6.5 6.5 6.5 6.5 6.5 6.5 6.5 6.5 6.5 6.5 6.5 6.5 6.5 6.5 6.5 6.1 5.6 3.8 6.4 6.7 6.4
1.6 1.9 2.5 1.6 4.5 5.6 6.0 7.2 8.4 7.6 6.5 6.5 6.7 7.2 7.7 7.5 6.7 8.1 8.4 7.4 6.5 6.5 6.5 6.5 6.5 6.5 6.5 6.5 6.5 6.5 6.5 6.5 6.5 6.5 6.5 6.5 6.5 6.5 6.5 6.5 6.5 5.6 4.2 6.4 6.7
1.8 1.4 2.2 3.1 3.8 5.7 6.2 6.5 7.7 7.0 6.5 6.5 6.7 8.4 7.5 6.7 6.8 7.1 8.6 7.3 6.5 6.5 6.5 6.5 6.5 6.5 6.5 6.5 6.5 6.5 6.5 6.5 6.5 6.5 6.5 6.5 6.5 6.5 6.5 6.5 6.5 6.5 3.8 6.5 6.7
2.0 2.2 2.8 3.4 3.2 5.3 5.0 4.7 5.3 6.5 6.5 6.5 6.7 6.5 6.5 6.6 6.7 7.2 7.3 7.9 7.4 6.5 6.5 6.5 6.5 6.5 6.5 6.5 6.5 6.5 6.5 6.5 6.5 6.5 6.5 6.5 6.5 6.5 6.5 6.5 6.5 6.5 4.4 6.2 6.7
2.2 2.9 3.0 6.5 4.4 4.8 3.9 3.4 6.5 6.5 6.5 6.5 6.5 6.5 6.5 6.5 6.5 6.5 6.5 6.5 6.5 6.5 6.5 6.5 6.5 6.5 6.5 6.5 6.5 6.5 6.5 6.5 6.5 6.5 6.5 6.5 6.5 6.5 6.5 6.5 6.5 6.5 5.7 5.4 6.7
2.3 4.1 5.1 5.7 4.6 4.0 2.1 6.2 6.5 6.5 6.5 6.5 6.5 6.5 6.5 6.5 6.5 6.5 6.5 6.5 6.5 6.5 6.5 6.5 6.5 6.5 6.5 6.5 6.5 6.5 6.5 6.5 6.5 6.5 6.5 6.5 6.5 6.5 6.5 6.5 5.5 4.7 4.3 4.2 6.3
2.5 3.3 3.0 4.5 4.8 3.0 3.6 6.5 6.5 6.5 6.5 6.5 6.5 6.5 6.5 6.5 6.5 6.5 6.5 6.5 6.5 6.5 6.5 6.5 6.5 6.5 6.5 6.5 6.5 6.5 6.5 6.5 6.5 6.5 6.5 6.5 6.5 6.5 6.5 6.5 6.5 6.4 5.7 4.1 3.1
1.7 3.6 5.4 5.4 5.1 4.0 5.8 6.5 6.5 6.6 6.6 6.5 6.5 6.5 6.5 6.5 6.5 6.5 6.5 6.5 6.5 6.5 6.5 6.5 6.5 6.5 6.5 6.5 6.5 6.5 6.5 6.5 6.5 6.5 6.5 6.5 6.5 6.5 6.5 6.5 6.5 6.5 6.4 6.6 5.8
2.3 4.1 5.6 6.6 4.2 3.5 6.5 6.5 6.5 7.1 6.9 6.5 6.5 6.5 6.5 6.5 6.5 6.5 6.5 6.5 6.5 6.5 6.4 6.5 6.5 6.5 6.5 6.5 6.5 6.5 6.5 6.5 6.5 6.5 6.5 6.5 6.5 6.5 6.5 6.5 6.5 6.5 6.1 6.6 6.8
2.1 5.4 4.9 4.7 5.2 4.2 6.5 6.5 6.6 6.7 6.9 6.6 6.4 6.5 6.5 6.5 6.5 6.5 6.5 6.5 6.5 6.2 6.5 6.5 6.5 6.5 6.5 6.5 6.5 6.5 6.5 6.5 6.5 6.5 6.5 6.5 6.5 6.5 6.5 6.5 6.5 6.4 6.4 6.6 7.2
3.7 4.7 5.3 4.8 6.5 6.5 6.3 6.5 6.7 6.5 6.5 6.5 6.5 6.5 6.5 6.5 6.5 6.5 6.5 6.7 6.6 6.5 6.5 6.5 6.5 6.5 6.5 6.5 6.5 6.5 6.5 6.5 6.5 6.5 6.5 6.5 6.5 6.5 6.5 6.5 6.3 5.8 5.5 6.3 7.0
4.4 6.5 3.8 4.2 5.0 6.2 6.5 6.5 6.5 6.8 6.6 6.7 6.5 6.5 6.5 6.5 6.5 6.5 6.5 6.5 6.7 6.6 7.0 6.4 6.5 6.5 6.5 6.5 6.5 6.5 6.5 6.5 6.5 6.5 6.5 6.5 6.5 6.5 6.5 6.5 6.5 5.8 5.5 5.9 6.4
4.5 4.4 6.1 6.5 5.8 6.1 6.3 6.5 6.5 6.5 6.5 6.4 6.5 6.5 6.5 6.5 6.5 6.5 6.5 6.5 6.6 6.8 6.4 6.5 6.5 6.5 6.5 6.5 6.5 6.5 6.5 6.5 6.5 6.5 6.5 6.5 6.5 6.5 6.5 6.5 6.4 6.6 6.8 6.8 6.9
4.0 4.0 5.3 5.3 5.9 6.1 6.4 6.5 6.5 6.5 6.5 6.5 6.5 6.5 6.5 6.5 6.5 6.5 6.5 6.5 6.5 6.5 6.5 6.5 6.5 6.5 6.5 6.5 6.5 6.5 6.5 6.5 6.5 6.5 6.5 6.5 6.5 6.5 6.5 6.4 6.3 6.7 6.8 6.8 7.0
5.7 5.8 5.4 6.0 5.6 6.5 6.5 6.5 6.5 6.4 6.6 6.8 6.4 6.5 6.5 6.5 6.2 5.9 5.5 6.0 6.4 6.5 6.5 6.5 6.5 6.5 6.5 6.5 6.5 6.5 6.5 6.5 6.5 6.5 6.5 6.5 6.5 6.5 6.5 6.5 6.6 6.3 6.7 6.8 7.0
Wind_Speed
29 29 30 30 29 28 27 26 24 24 23 23 22 21 20 21 22 11 9 14 12 19 2 3 5 7 5 5 8 4 6 12 14 15 21 21 6 2 1 6 6 8 8 9 16
34 34 34 34 32 30 28 26 26 24 23 23 23 22 21 20 12 13 15 19 25 13 5 6 7 8 4 5 5 10 10 20 10 15 16 21 6 13 5 9 6 11 19 19 19
34 34 34 33 33 32 31 29 27 24 24 25 24 21 18 16 6 6 3 24 24 17 9 6 10 7 9 7 7 7 17 13 12 23 24 24 13 11 8 8 22 26 27 24 19
34 34 34 33 32 32 30 29 27 26 25 24 21 17 14 4 4 3 5 1 9 14 8 8 6 8 9 12 13 14 14 15 17 21 20 17 9 11 6 6 23 30 30 24 21
36 36 35 34 33 33 31 28 27 25 25 21 16 12 5 3 10 13 3 2 5 3 11 10 9 7 16 12 13 18 17 18 21 22 24 16 17 8 8 7 24 24 23 23 19
36 36 36 35 34 34 33 30 27 24 22 19 13 4 3 4 7 15 17 2 5 7 7 9 8 13 11 15 17 9 16 19 17 19 23 19 17 4 10 17 22 25 23 20 19
36 36 36 34 34 33 33 32 32 27 20 16 10 4 5 13 10 21 14 9 6 6 10 13 16 17 2 18 11 15 16 15 17 20 12 7 14 10 10 14 23 23 21 20 18
36 36 34 33 33 32 34 32 33 29 17 10 5 4 6 8 19 14 12 14 16 18 16 13 16 20 21 10 16 17 11 15 24 9 15 8 18 12 12 12 16 21 19 18 14
37 36 34 33 34 32 34 36 34 18 6 5 2 3 8 12 21 22 9 13 13 14 21 16 16 18 18 16 13 13 19 19 11 11 6 15 16 12 11 11 16 20 21 19 17
37 37 34 33 35 30 30 35 16 4 8 7 7 3 4 16 22 16 17 21 17 14 20 16 12 13 13 13 21 17 15 9 10 15 11 11 15 13 12 12 12 19 21 21 20
38 38 35 33 36 33 12 5 7 6 7 6 14 5 9 18 19 18 18 21 10 16 18 15 12 19 27 25 20 13 14 13 9 10 16 19 14 15 13 7 12 18 21 21 23
39 37 37 33 34 33 6 10 9 1 9 10 7 6 13 14 22 17 21 15 20 19 20 15 19 28 25 17 18 13 19 19 9 20 13 18 18 21 14 16 9 13 23 24 21
38 37 36 38 35 8 8 12 9 6 3 8 18 12 18 16 11 25 21 21 12 18 18 22 25 23 19 20 18 20 20 20 17 13 13 8 17 15 12 15 15 11 23 26 26
40 35 35 37 6 9 3 12 13 6 2 10 17 6 12 13 11 20 21 19 7 15 16 18 24 22 21 24 19 19 25 22 21 14 12 9 13 15 17 18 12 13 13 26 26
40 39 31 25 5 4 9 18 10 2 4 17 16 13 12 17 17 22 23 11 14 18 16 20 18 15 25 25 22 24 15 18 22 18 12 18 3 6 9 7 10 15 10 26 25
41 38 32 10 4 6 23 15 1 4 4 12 19 23 14 15 15 17 20 21 7 11 13 8 17 11 21 21 23 23 17 18 15 16 14 15 6 5 7 11 12 14 11 25 28
43 38 20 7 6 27 17 4 4 6 14 14 25 20 14 16 16 19 25 25 17 13 15 21 9 14 17 17 16 16 17 12 12 12 11 14 6 7 12 7 6 20 18 22 27
44 32 11 1 27 19 4 6 10 12 14 17 19 17 10 19 14 15 11 19 18 19 12 10 9 9 10 9 17 14 18 10 8 5 13 14 6 6 4 6 7 3 13 17 23
31 5 5 11 28 9 5 7 3 9 13 16 14 12 8 17 15 10 5 15 16 17 12 10 9 24 16 19 1 9 14 10 7 5 2 4 5 4 6 8 11 14 17 12 8
6 2 10 25 26 5 6 10 5 12 11 14 14 13 16 17 13 13 11 9 16 14 8 10 10 10 18 14 14 12 7 3 2 5 5 4 7 6 7 7 8 13 15 17 18
4 3 7 27 6 5 5 6 4 13 14 12 12 8 15 17 15 12 5 5 14 13 8 6 5 14 10 14 17 12 9 9 6 3 4 3 5 7 15 16 13 13 16 16 17
4 4 5 7 6 3 3 10 8 12 8 9 8 11 12 16 13 11 12 13 17 12 9 5 3 9 10 11 18 14 18 16 5 7 4 7 6 8 16 11 12 13 15 15 18
5 2 5 5 3 4 6 9 8 9 10 12 7 9 13 12 9 15 14 14 19 16 5 7 5 9 11 8 14 9 20 19 14 8 5 3 1 5 20 15 11 11 12 14 16
3 4 4 4 4 6 5 5 10 10 8 12 9 10 13 10 14 12 16 12 18 20 10 4 3 2 3 8 9 13 20 16 12 3 12 5 5 8 6 15 13 11 14 14 14
4 3 4 4 5 11 6 9 14 12 7 7 6 14 13 12 12 8 14 16 16 12 12 10 7 12 10 17 17 16 16 14 8 11 5 14 9 12 14 5 11 14 14 16 15
3 3 4 4 9 9 8 9 11 12 15 14 13 16 12 10 10 14 12 10 11 12 8 10 6 12 14 12 8 11 16 13 9 12 10 13 3 8 12 9 11 13 14 15 16
4 4 1 5 6 6 7 15 16 17 5 16 15 15 11 9 7 7 8 12 16 17 16 13 8 8 13 12 15 7 2 7 8 8 7 6 6 7 13 12 12 13 14 15 15
Wind_Direction
356 353 351 348 344 340 338 334 330 326 323 320 318 315 316 315 311 289 242 223 196 230 256 340 206 222 253 245 236 225 241 249 250 254 266 279 310 281 202 119 98 140 80 178 139
355 353 350 345 341 339 336 331 327 324 321 317 316 315 315 319 299 255 246 233 219 227 189 236 235 207 223 222 233 210 233 238 249 264 269 278 275 284 148 106 108 136 176 163 143
353 349 346 341 338 335 331 328 324 321 319 316 316 315 316 317 289 239 256 217 226 206 209 207 238 207 208 224 242 247 239 244 246 246 259 273 293 285 142 141 141 137 143 154 151
351 347 344 340 335 330 326 323 321 321 319 318 318 316 317 290 309 51 337 208 195 172 205 236 253 244 230 215 227 245 247 242 255 263 272 279 304 319 159 176 151 147 151 157 155
348 345 342 338 333 328 324 320 316 314 313 317 326 330 317 231 255 283 260 85 131 190 209 214 231 248 247 227 224 229 235 243 245 253 260 270 274 251 230 114 140 142 150 158 156
346 342 340 336 330 327 324 321 315 309 309 315 324 337 280 270 276 335 331 175 237 173 227 236 228 225 274 242 233 232 240 241 243 239 251 253 266 290 218 126 140 148 160 163 166
345 340 337 334 328 326 323 319 313 310 308 308 317 243 269 254 295 307 309 311 280 246 232 222 236 250 242 262 251 251 254 261 251 243 243 234 269 257 242 147 155 159 161 168 172
344 340 336 333 327 328 323 317 312 309 297 283 316 215 255 258 285 323 340 337 330 314 274 249 228 240 247 280 280 254 261 254 250 238 236 174 256 263 244 161 149 162 162 168 178
344 340 337 334 328 329 324 317 308 312 249 209 221 225 285 337 356 343 322 311 301 303 301 282 248 236 245 241 259 246 240 243 250 235 220 206 238 252 243 164 159 166 169 172 181
343 339 336 333 328 332 323 310 319 358 320 159 256 304 318 348 351 343 330 337 304 297 297 271 266 249 241 223 226 224 234 242 231 235 248 232 231 236 241 217 184 175 173 173 180
343 339 336 335 331 330 337 346 16 360 29 297 296 258 301 357 352 325 354 336 340 318 278 279 256 234 232 231 231 225 242 232 256 240 219 237 223 223 229 202 223 171 175 176 178
344 340 335 338 332 324 5 35 34 354 309 300 331 39 20 359 332 3 338 343 320 293 319 271 243 239 236 242 228 233 236 247 247 235 210 230 231 214 206 226 202 189 180 179 177
344 341 337 334 328 339 48 23 353 29 250 298 28 15 354 3 328 351 354 314 285 285 276 269 254 255 235 238 228 225 233 245 241 266 249 214 229 212 217 205 226 206 185 179 176
343 342 337 337 1 322 26 349 328 83 9 14 18 352 352 12 359 353 335 302 254 256 254 262 258 241 221 237 225 231 230 242 257 250 255 245 241 206 200 208 217 226 188 184 179
342 338 337 331 263 357 310 316 316 81 73 328 1 315 350 25 325 357 350 328 359 323 251 245 256 224 242 218 230 242 234 234 242 254 257 272 163 226 156 213 229 233 198 181 179
341 335 334 333 326 292 316 307 100 39 2 352 348 327 346 12 4 351 16 7 13 336 319 283 267 283 242 235 225 239 248 257 250 241 247 244 170 263 192 205 235 238 212 178 184
340 330 329 310 312 313 312 359 48 73 350 343 335 341 353 5 360 11 15 24 20 346 347 317 285 261 252 252 250 229 227 237 243 243 239 230 206 226 217 204 226 224 227 182 176
339 325 316 299 333 334 349 58 60 359 4 330 334 351 360 356 354 10 21 25 23 10 303 334 333 15 6 277 240 237 231 214 218 202 231 236 196 238 228 93 35 63 216 180 177
336 331 357 334 337 343 43 51 61 359 351 341 343 352 352 352 340 356 59 23 17 23 353 345 295 327 347 331 7 283 238 200 222 223 193 195 285 25 125 77 65 43 69 69 113
319 292 3 337 334 24 49 73 44 19 354 356 357 351 2 345 349 357 11 20 4 27 14 336 294 316 329 333 31 25 343 292 170 191 220 256 202 211 134 124 88 78 69 77 74
347 55 320 341 19 30 66 61 9 20 1 360 340 355 7 340 339 347 17 9 5 356 23 13 300 313 315 36 18 11 19 347 315 155 210 255 260 2 173 155 129 98 85 91 88
317 46 308 0 40 356 10 26 27 32 356 1 341 8 4 347 333 348 356 34 6 1 358 340 314 309 289 332 31 83 32 15 1 325 310 193 260 339 99 78 87 84 85 91 97
324 5 339 33 56 343 357 6 13 29 12 351 351 356 0 352 336 327 353 9 8 1 7 325 336 332 351 26 20 13 350 349 325 256 22 307 154 39 102 92 79 78 78 80 89
355 1 343 6 340 342 343 343 1 358 3 344 351 353 349 343 329 332 348 347 354 338 338 333 341 112 288 271 271 308 323 334 340 338 329 3 348 114 70 106 100 79 77 76 77
21 359 45 329 329 325 343 6 354 341 3 337 347 345 340 330 326 343 338 335 339 333 330 1 320 308 323 306 289 285 307 316 326 314 314 307 331 346 335 79 95 91 83 80 75
55 18 348 283 315 341 10 353 329 347 346 344 332 332 330 318 344 327 330 324 306 308 316 304 286 313 299 297 322 315 296 289 274 294 310 330 39 355 323 89 84 82 79 77 72
336 319 43 289 327 351 341 330 329 344 340 325 319 324 320 331 327 296 286 285 274 275 279 275 275 296 292 317 315 309 312 18 15 58 305 13 358 41 355 50 68 74 70 67 66